Gary, IN

12:48 PM CST on November 23, 2017 (GMT -0600)
Gary / Chicago

Weather History for KGYY - January, 2014

Change the Weather History Date:

Thursday, January 2, 2014

  Actual Average Record
Temperature  
Mean Temperature 13 °F -  
Max Temperature 21 °F 25 °F 62 °F (2004)
Min Temperature 5 °F 12 °F -11 °F (1979)
Degree Days  
Heating Degree Days 52    
Moisture  
Dew Point 9 °F    
Average Humidity 75    
Maximum Humidity 86    
Minimum Humidity 58    
Precipitation  
Precipitation 0.01 in - - ()
Sea Level Pressure  
Sea Level Pressure 30.24 in    
Wind  
Wind Speed 14 mph (North)    
Max Wind Speed 28 mph    
Max Gust Speed 36 mph    
Visibility 6 miles    
Events Snow    
Averages and records for this station are not official NWS values.
T = Trace of Precipitation, MM = Missing Value Source: NWS Daily Summary

Daily Weather History Graph

Daily Weather History Graph

Search for Another Location

Airport or City:

Trip Planner

Search our weather history database for the weather conditions in past years. The results will help you decide how hot, cold, wet, or windy it might be!

Date:

Astronomy

Jan. 02, 2014 Rise Set
Actual Time 7:16 AM CST 4:31 PM CST
Civil Twilight 6:45 AM CST 5:02 PM CST
Nautical Twilight 6:10 AM CST 5:37 PM CST
Astronomical Twilight 5:36 AM CST 6:10 PM CST
Moon 7:56 AM CST (1/2) 6:29 PM CST (1/2)
Length of Visible Light 10h 17m
Length of Day
9h 14m
Waxing Crescent, 3% of the Moon is Illuminated
Jan 2
Waxing Crescent
Jan 7
First Quarter
Jan 15
Full
Jan 23
Last Quarter
Jan 30
New

Hourly Weather History & Observations

Time (CST) Temp. Windchill Dew Point Humidity Pressure Visibility Wind Dir Wind Speed Gust Speed Precip Events Conditions
12:15 AM 19.2 °F 5.8 °F 13.6 °F 79% 30.15 in 2.5 mi ENE 13.8 mph 20.7 mph N/A Snow Light Snow
12:35 AM 19.4 °F 5.5 °F 14.0 °F 80% 30.14 in 2.5 mi ENE 15.0 mph 21.9 mph N/A Snow Light Snow
12:55 AM 19.4 °F 5.0 °F 14.2 °F 80% 30.14 in 2.5 mi ENE 16.1 mph - N/A Snow Light Snow
1:15 AM 19.4 °F 6.0 °F 14.0 °F 80% 30.13 in 2.5 mi NE 13.8 mph - N/A Snow Light Snow
1:35 AM 19.4 °F 6.6 °F 14.0 °F 80% 30.13 in 4.0 mi ENE 12.7 mph - N/A Snow Light Snow
1:55 AM 20.1 °F 9.5 °F 14.7 °F 80% 30.13 in 5.0 mi ENE 9.2 mph - N/A Snow Light Snow
2:15 AM 20.1 °F 5.4 °F 14.4 °F 78% 30.13 in 7.0 mi ENE 17.3 mph 21.9 mph N/A Snow Light Snow
2:35 AM 20.3 °F 6.6 °F 14.5 °F 78% 30.12 in 5.0 mi ENE 15.0 mph 19.6 mph N/A Snow Light Snow
2:55 AM 20.3 °F 6.6 °F 14.7 °F 79% 30.12 in 7.0 mi ENE 15.0 mph - N/A Snow Light Snow
3:15 AM 20.3 °F 7.2 °F 14.5 °F 78% 30.11 in 5.0 mi ENE 13.8 mph - N/A Snow Light Snow
3:35 AM 20.7 °F 8.2 °F 15.3 °F 80% 30.10 in 5.0 mi NE 12.7 mph 17.3 mph N/A Snow Light Snow
4:45 AM 21.2 °F 8.3 °F 15.8 °F 80% 30.10 in 5.0 mi ENE 13.8 mph - N/A Snow Light Snow
5:45 AM 21.2 °F 8.3 °F 15.8 °F 80% 30.11 in 3.0 mi ENE 13.8 mph 25.3 mph N/A Snow Light Snow
6:45 AM 21.2 °F 7.3 °F 17.6 °F 86% 30.12 in 2.0 mi ENE 16.1 mph 27.6 mph N/A Snow Light Snow
7:45 AM 21.2 °F 8.3 °F 15.8 °F 80% 30.13 in 2.0 mi NE 13.8 mph 25.3 mph N/A Snow Light Snow
8:45 AM 21.2 °F - 15.8 °F 80% 30.14 in 1.0 mi North - - N/A Snow Snow
9:45 AM 19.4 °F 4.5 °F 15.8 °F 86% 30.17 in 1.0 mi NE 17.3 mph 28.8 mph N/A Snow Snow
10:45 AM 19.4 °F 4.5 °F 15.8 °F 86% 30.18 in 0.5 mi NE 17.3 mph 28.8 mph N/A Snow Snow
11:45 AM 19.4 °F 2.5 °F 12.2 °F 74% 30.18 in 1.0 mi NNE 23.0 mph 34.5 mph N/A Snow Snow
12:45 PM 21.2 °F 6.8 °F 8.6 °F 58% 30.18 in 7.0 mi NNE 17.3 mph 34.5 mph N/A   Overcast
1:45 PM 21.2 °F 6.8 °F 12.2 °F 68% 30.18 in 5.0 mi NNE 17.3 mph 34.5 mph N/A Snow Light Snow
2:45 PM 21.2 °F 6.4 °F 14.0 °F 74% 30.21 in 2.0 mi NNE 18.4 mph 32.2 mph N/A Snow Light Snow
3:45 PM 21.2 °F 6.8 °F 14.0 °F 74% 30.24 in 2.0 mi NNE 17.3 mph 35.7 mph N/A Snow Light Snow
4:45 PM 21.2 °F 5.6 °F 12.2 °F 68% 30.27 in 3.0 mi North 20.7 mph 32.2 mph N/A Snow Light Snow
5:10 PM 19.4 °F 5.5 °F 14.0 °F 80% 30.29 in 1.2 mi NNW 15.0 mph 26.5 mph N/A Snow Light Snow
5:45 PM 17.6 °F -1.3 °F 14.0 °F 86% 30.30 in 0.5 mi WNW 27.6 mph - N/A Snow Heavy Snow
6:45 PM 17.6 °F 0.1 °F 8.6 °F 68% 30.32 in 10.0 mi WNW 23.0 mph - N/A   Mostly Cloudy
7:45 PM 14.0 °F -3.0 °F 6.8 °F 73% 30.34 in 10.0 mi WNW 18.4 mph - N/A   Scattered Clouds
8:15 PM 13.8 °F -1.1 °F 5.4 °F 69% 30.35 in 10.0 mi NW 13.8 mph 17.3 mph N/A   Clear
8:35 PM 12.0 °F 0.5 °F 3.2 °F 68% 30.36 in 10.0 mi West 8.1 mph - N/A   Clear
8:45 PM 10.4 °F -9.1 °F 1.4 °F 67% 30.36 in 10.0 mi WNW 21.9 mph - N/A   Partly Cloudy
8:55 PM 10.4 °F -1.5 °F 2.1 °F 69% 30.36 in 10.0 mi West 8.1 mph - N/A   Clear
9:15 PM 9.5 °F -2.6 °F 1.4 °F 70% 30.37 in 10.0 mi WNW 8.1 mph - N/A   Clear
9:35 PM 8.6 °F -2.6 °F 0.5 °F 70% 30.38 in 10.0 mi WNW 6.9 mph - N/A   Clear
9:45 PM 8.6 °F -7.0 °F -0.4 °F 67% 30.38 in 10.0 mi WNW 12.7 mph - N/A   Partly Cloudy
9:55 PM 9.1 °F -3.0 °F 1.0 °F 70% 30.38 in 10.0 mi WNW 8.1 mph - N/A   Clear
10:15 PM 6.8 °F -5.9 °F -1.3 °F 69% 30.37 in 10.0 mi WNW 8.1 mph - N/A   Clear
10:35 PM 5.7 °F -8.2 °F -2.2 °F 70% 30.37 in 10.0 mi West 9.2 mph - N/A   Clear
10:55 PM 5.2 °F -9.8 °F -3.1 °F 69% 30.38 in 10.0 mi West 10.4 mph - N/A   Clear
11:15 PM 6.6 °F -7.1 °F -1.8 °F 68% 30.39 in 10.0 mi West 9.2 mph - N/A   Clear
11:35 PM 6.4 °F -6.3 °F -2.0 °F 68% 30.38 in 10.0 mi West 8.1 mph - N/A   Clear
11:55 PM 5.5 °F -8.4 °F -2.4 °F 70% 30.37 in 10.0 mi West 9.2 mph - N/A   Clear